Weather History for KBHK - October, 2013

Change the Weather History Date:

Tuesday, October 22, 2013

  Actual Average Record
Temperature  
Mean Temperature 42 °F -  
Max Temperature 48 °F 74 °F 71 °F (2003)
Min Temperature 35 °F 29 °F 17 °F (2002)
Degree Days  
Heating Degree Days 24    
Moisture  
Dew Point 37 °F    
Average Humidity 79    
Maximum Humidity 100    
Minimum Humidity 56    
Precipitation  
Precipitation 0.03 in - - ()
Sea Level Pressure  
Sea Level Pressure 30.08 in    
Wind  
Wind Speed 10 mph (WNW)    
Max Wind Speed 21 mph    
Max Gust Speed 26 mph    
Visibility 10 miles    
Events Rain    
Averages and records for this station are not official NWS values.
T = Trace of Precipitation, MM = Missing Value Source: NWS Daily Summary

Daily Weather History Graph

Daily Weather History Graph

Search for Another Location

Airport or City:

Trip Planner

Search our weather history database for the weather conditions in past years. The results will help you decide how hot, cold, wet, or windy it might be!

Date:

Astronomy

Oct. 22, 2013 Rise Set
Actual Time 7:24 AM MDT 5:57 PM MDT
Civil Twilight 6:53 AM MDT 6:28 PM MDT
Nautical Twilight 6:18 AM MDT 7:03 PM MDT
Astronomical Twilight 5:43 AM MDT 7:38 PM MDT
Moon 8:31 PM MDT (10/22) 11:03 AM MDT (10/22)
Length of Visible Light 11h 34m
Length of Day
10h 33m
Waning Gibbous, 86% of the Moon is Illuminated
Oct 22
Waning Gibbous
Oct 26
Last Quarter
Nov 3
New
Nov 9
First Quarter
Nov 17
Full

Hourly Weather History & Observations

Time (MDT) Temp. Windchill Dew Point Humidity Pressure Visibility Wind Dir Wind Speed Gust Speed Precip Events Conditions
12:51 AM 45.0 °F 36.9 °F 45.0 °F 100% 30.01 in 10.0 mi WNW 20.7 mph 26.5 mph 0.02 in Rain Light Rain
1:51 AM 44.1 °F 37.4 °F - N/A% 30.02 in 10.0 mi WNW 13.8 mph - 0.01 in   Overcast
2:51 AM 44.1 °F 37.7 °F - N/A% 30.04 in 10.0 mi NW 12.7 mph - N/A   Overcast
3:17 AM 42.8 °F 37.0 °F - N/A% 30.02 in 10.0 mi NW 10.4 mph - N/A   Overcast
3:33 AM 42.8 °F 37.5 °F - N/A% 30.03 in 10.0 mi NNW 9.2 mph - N/A   Overcast
3:46 AM 42.8 °F 38.0 °F - N/A% 30.03 in 10.0 mi North 8.1 mph - N/A   Overcast
3:51 AM 42.1 °F 38.4 °F - N/A% 30.06 in 10.0 mi North 5.8 mph - N/A   Overcast
4:51 AM 41.0 °F 37.1 °F 41.0 °F 100% 30.07 in 10.0 mi NNW 5.8 mph - N/A   Overcast
5:51 AM 37.9 °F 33.5 °F 37.9 °F 100% 30.09 in 10.0 mi WNW 5.8 mph - N/A   Scattered Clouds
6:22 AM 37.4 °F 32.8 °F 37.4 °F 100% 30.07 in 10.0 mi NNW 5.8 mph - N/A   Mostly Cloudy
6:44 AM 35.6 °F 32.8 °F 35.6 °F 100% 30.07 in 10.0 mi NW 3.5 mph - N/A   Scattered Clouds
6:51 AM 36.0 °F 33.3 °F 36.0 °F 100% 30.11 in 10.0 mi WNW 3.5 mph - N/A   Partly Cloudy
7:51 AM 37.0 °F 34.5 °F 37.0 °F 100% 30.12 in 8.0 mi West 3.5 mph - N/A   Overcast
8:51 AM 41.0 °F 37.1 °F 37.9 °F 89% 30.13 in 10.0 mi West 5.8 mph - N/A   Overcast
9:51 AM 42.1 °F 37.7 °F 39.0 °F 89% 30.14 in 10.0 mi WNW 6.9 mph - N/A   Overcast
10:51 AM 46.0 °F 41.0 °F 37.9 °F 73% 30.13 in 10.0 mi NW 10.4 mph - N/A   Scattered Clouds
11:51 AM 48.0 °F - 36.0 °F 63% 30.12 in 10.0 mi NW 11.5 mph - N/A   Mostly Cloudy
12:51 PM 48.9 °F - 37.0 °F 64% 30.12 in 10.0 mi NW 11.5 mph - N/A   Overcast
1:51 PM 48.0 °F - 36.0 °F 63% 30.11 in 10.0 mi WNW 11.5 mph - N/A   Overcast
2:51 PM 48.9 °F - 35.1 °F 59% 30.10 in 10.0 mi WNW 8.1 mph - N/A   Overcast
3:51 PM 48.9 °F - 34.0 °F 56% 30.10 in 10.0 mi WNW 8.1 mph - N/A   Overcast
4:51 PM 48.0 °F - 34.0 °F 58% 30.10 in 10.0 mi West 6.9 mph - N/A   Overcast
5:51 PM 46.9 °F - 35.1 °F 63% 30.10 in 10.0 mi Calm Calm - N/A   Overcast
6:51 PM 45.0 °F - 36.0 °F 71% 30.10 in 10.0 mi Calm Calm - N/A   Overcast
7:51 PM 43.0 °F 39.5 °F 37.0 °F 80% 30.09 in 10.0 mi South 5.8 mph - N/A   Overcast
8:51 PM 44.1 °F 42.5 °F 37.0 °F 76% 30.06 in 10.0 mi South 3.5 mph - N/A   Overcast
9:51 PM 44.1 °F 42.5 °F 35.1 °F 71% 30.05 in 10.0 mi SSE 3.5 mph - N/A   Overcast
10:51 PM 43.0 °F 38.8 °F 34.0 °F 71% 30.03 in 10.0 mi SSW 6.9 mph - N/A   Mostly Cloudy
11:51 PM 42.1 °F 38.4 °F 34.0 °F 73% 30.01 in 10.0 mi NE 5.8 mph - N/A   Mostly Cloudy